Location: *
(40.4000°N, 15.1200°E)
Time: 06:49:35
(UTC+00:00)

ATLAS CENTAUR R/B - Pass Details

Date: 09 April 2020
Orbit: 466 x 681 km, 64.7° (Epoch: 20 May)

Event Time Altitude Azimuth Distance (km) Brightness Sun altitude
Rises 20:18:36 0° 338° (NNW) 2,643 5.8 -28.9°
Reaches altitude 10° 20:21:12 10° 354° (N) 1,716 4.4 -29.2°
Enters shadow 20:22:08 15° 5° (N) 1,437 3.8 -29.4°
